Weather History for Rogers, AR

Change the Weather History Date:

Tuesday, May 14, 2013

  Actual Average Record
Temperature  
Mean Temperature 74 °F -  
Max Temperature 84 °F 72 °F 84 °F (2013)
Min Temperature 64 °F 53 °F 37 °F (2000)
Cooling Degree Days 9    
Growing Degree Days 24 (Base 50)    
Moisture  
Dew Point 52 °F    
Average Humidity 48    
Maximum Humidity 61    
Minimum Humidity 29    
Precipitation  
Precipitation 0.00 in - - ()
Sea Level Pressure  
Sea Level Pressure 30.02 in    
Wind  
Wind Speed 12 mph (SSW)    
Max Wind Speed 17 mph    
Max Gust Speed 28 mph    
Visibility 10 miles    
Events      
Averages and records for this station are not official NWS values.
T = Trace of Precipitation, MM = Missing Value Source: NWS Daily Summary

Daily Weather History Graph

Daily Weather History Graph

Search for Another Location

Airport:

Trip Planner

Search our weather history database for the weather conditions in past years. The results will help you decide how hot, cold, wet, or windy it might be!

Date:

Astronomy

May. 14, 2013 Rise Set
Actual Time 6:10 AM CDT 8:15 PM CDT
Civil Twilight 5:41 AM CDT 8:44 PM CDT
Nautical Twilight 5:06 AM CDT 9:19 PM CDT
Astronomical Twilight 4:29 AM CDT 9:57 PM CDT
Moon 9:50 AM CDT (5/14) No Moon Set
Length of Visible Light 15h 02m
Length of Day
14h 05m
Waxing Crescent, 19% of the Moon is Illuminated
May 14
Waxing Crescent
May 17
First Quarter
May 24
Full
May 31
Last Quarter
Jun 8
New

Hourly Weather History & Observations

Time (CDT) Temp. Heat Index Dew Point Humidity Pressure Visibility Wind Dir Wind Speed Gust Speed Precip Events Conditions
12:57 AM 66.9 °F - 53.1 °F 61% 30.04 in 10.0 mi South 12.7 mph - N/A   Clear
1:57 AM 66.9 °F - 51.1 °F 57% 30.03 in 10.0 mi SSW 12.7 mph - N/A   Clear
2:57 AM 66.0 °F - 50.0 °F 56% 30.02 in 10.0 mi SSW 9.2 mph - N/A   Clear
3:57 AM 64.9 °F - 48.9 °F 56% 30.02 in 10.0 mi SSW 9.2 mph - N/A   Clear
4:57 AM 64.0 °F - 48.9 °F 58% 30.02 in 10.0 mi SSW 12.7 mph - N/A   Clear
5:57 AM 64.0 °F - 48.0 °F 56% 30.03 in 10.0 mi SSW 12.7 mph - N/A   Clear
6:57 AM 64.0 °F - 48.9 °F 58% 30.04 in 10.0 mi SSW 9.2 mph - N/A   Clear
7:57 AM 68.0 °F - 51.1 °F 55% 30.06 in 10.0 mi SW 12.7 mph - N/A   Clear
8:57 AM 71.1 °F - 51.1 °F 49% 30.06 in 10.0 mi SW 16.1 mph 27.6 mph N/A   Clear
9:57 AM 73.9 °F - 53.1 °F 48% 30.06 in 10.0 mi WSW 13.8 mph 18.4 mph N/A   Clear
10:57 AM 75.9 °F - 55.9 °F 50% 30.07 in 10.0 mi WSW 11.5 mph 21.9 mph N/A   Clear
11:57 AM 79.0 °F - 55.0 °F 44% 30.06 in 10.0 mi WSW 12.7 mph - N/A   Clear
12:57 PM 82.0 °F 81.6 °F 55.9 °F 41% 30.04 in 10.0 mi SW 11.5 mph 18.4 mph N/A   Clear
1:57 PM 84.0 °F 83.5 °F 57.9 °F 41% 30.02 in 10.0 mi SW 15.0 mph 20.7 mph N/A   Clear
2:57 PM 84.9 °F 83.3 °F 54.0 °F 34% 30.01 in 10.0 mi SW 15.0 mph 20.7 mph N/A   Clear
3:57 PM 84.9 °F - 48.9 °F 29% 29.99 in 10.0 mi SW 16.1 mph 26.5 mph N/A   Clear
4:57 PM 84.0 °F 82.5 °F 53.1 °F 34% 29.98 in 10.0 mi SW 12.7 mph 19.6 mph N/A   Clear
5:57 PM 82.9 °F 81.8 °F 53.1 °F 36% 29.97 in 10.0 mi South 17.3 mph 20.7 mph N/A   Clear
6:57 PM 82.0 °F - 52.0 °F 35% 29.96 in 10.0 mi SSW 16.1 mph 25.3 mph N/A   Clear
7:57 PM 78.1 °F - 50.0 °F 37% 29.96 in 10.0 mi SSW 10.4 mph - N/A   Clear
8:57 PM 73.0 °F - 53.1 °F 49% 29.96 in 10.0 mi South 11.5 mph - N/A   Clear
9:57 PM 70.0 °F - 52.0 °F 53% 29.98 in 10.0 mi South 8.1 mph - N/A   Clear
10:57 PM 71.1 °F - 53.1 °F 53% 29.99 in 10.0 mi SSW 11.5 mph - N/A   Clear
11:57 PM 68.0 °F - 53.1 °F 59% 29.99 in 10.0 mi South 9.2 mph - N/A   Clear